QPF
0.00 0.00 0.00 0.00 0.00 0.00 0.00 0.00 0.00 0.00 0.00 0.00 0.00 0.00 0.00 0.00 0.00 0.00 0.00 0.00 0.00 0.00 0.00 0.00 0.00 0.00 0.00 0.00 0.00 0.00 0.00 0.00 0.00 0.00 0.00 0.00 0.00 0.00 0.00 0.00 0.00 0.00 0.00 0.00
0.00 0.00 0.00 0.00 0.00 0.00 0.00 0.00 0.00 0.00 0.00 0.00 0.00 0.00 0.00 0.00 0.00 0.00 0.00 0.00 0.00 0.00 0.00 0.00 0.00 0.00 0.00 0.00 0.00 0.00 0.00 0.00 0.00 0.00 0.00 0.00 0.00 0.00 0.00 0.00 0.00 0.00 0.00 0.00
0.00 0.00 0.00 0.00 0.00 0.00 0.00 0.00 0.00 0.00 0.00 0.00 0.00 0.00 0.00 0.00 0.00 0.00 0.00 0.00 0.00 0.00 0.00 0.00 0.00 0.00 0.00 0.00 0.00 0.00 0.00 0.00 0.00 0.00 0.00 0.00 0.00 0.00 0.00 0.00 0.00 0.00 0.00 0.00
0.00 0.00 0.00 0.00 0.00 0.00 0.00 0.00 0.00 0.00 0.00 0.00 0.00 0.00 0.00 0.00 0.00 0.00 0.00 0.00 0.00 0.00 0.00 0.00 0.00 0.00 0.00 0.00 0.00 0.00 0.00 0.00 0.00 0.00 0.00 0.00 0.00 0.00 0.00 0.00 0.00 0.00 0.00 0.00
0.00 0.00 0.00 0.00 0.00 0.00 0.00 0.00 0.00 0.00 0.00 0.00 0.00 0.00 0.00 0.00 0.00 0.00 0.00 0.00 0.00 0.00 0.00 0.00 0.00 0.00 0.00 0.00 0.00 0.00 0.00 0.00 0.00 0.00 0.00 0.00 0.00 0.00 0.00 0.00 0.00 0.00 0.00 0.00
0.00 0.00 0.00 0.00 0.00 0.00 0.00 0.00 0.00 0.00 0.00 0.00 0.00 0.00 0.00 0.00 0.00 0.00 0.00 0.00 0.00 0.00 0.00 0.00 0.00 0.00 0.00 0.00 0.00 0.00 0.00 0.00 0.00 0.00 0.00 0.00 0.00 0.00 0.00 0.00 0.00 0.00 0.00 0.00
0.00 0.00 0.00 0.00 0.00 0.00 0.00 0.00 0.00 0.00 0.00 0.00 0.00 0.00 0.00 0.00 0.00 0.00 0.00 0.00 0.00 0.00 0.00 0.00 0.00 0.00 0.00 0.00 0.00 0.00 0.00 0.00 0.00 0.00 0.00 0.00 0.00 0.00 0.00 0.00 0.00 0.00 0.00 0.00
0.00 0.00 0.00 0.00 0.00 0.00 0.00 0.00 0.00 0.00 0.00 0.00 0.00 0.00 0.00 0.00 0.00 0.00 0.00 0.00 0.00 0.00 0.00 0.00 0.00 0.00 0.00 0.00 0.00 0.00 0.00 0.00 0.00 0.00 0.00 0.00 0.00 0.00 0.00 0.00 0.00 0.00 0.00 0.00
0.00 0.00 0.00 0.00 0.00 0.00 0.00 0.00 0.00 0.00 0.00 0.00 0.00 0.00 0.00 0.00 0.00 0.00 0.00 0.00 0.00 0.00 0.00 0.00 0.00 0.00 0.00 0.00 0.00 0.00 0.00 0.00 0.00 0.00 0.00 0.00 0.00 0.00 0.00 0.00 0.00 0.00 0.00 0.00
0.00 0.00 0.00 0.00 0.00 0.00 0.00 0.00 0.00 0.00 0.00 0.00 0.00 0.00 0.00 0.00 0.00 0.00 0.00 0.00 0.00 0.00 0.00 0.00 0.00 0.00 0.00 0.00 0.00 0.00 0.00 0.00 0.00 0.00 0.00 0.00 0.00 0.00 0.00 0.00 0.00 0.00 0.00 0.00
0.00 0.00 0.00 0.00 0.00 0.00 0.00 0.00 0.00 0.00 0.00 0.00 0.00 0.00 0.00 0.00 0.00 0.00 0.00 0.00 0.00 0.00 0.00 0.00 0.00 0.00 0.00 0.00 0.00 0.00 0.00 0.00 0.00 0.00 0.00 0.00 0.00 0.00 0.00 0.00 0.00 0.00 0.00 0.00
0.00 0.00 0.00 0.00 0.00 0.00 0.00 0.00 0.00 0.01 0.01 0.01 0.02 0.01 0.00 0.00 0.00 0.00 0.00 0.00 0.00 0.00 0.00 0.00 0.00 0.00 0.00 0.00 0.00 0.00 0.00 0.00 0.00 0.00 0.00 0.00 0.00 0.00 0.00 0.00 0.00 0.00 0.00 0.00
0.00 0.00 0.00 0.00 0.00 0.00 0.00 0.00 0.00 0.00 0.01 0.02 0.02 0.01 0.00 0.00 0.00 0.00 0.00 0.00 0.00 0.00 0.00 0.00 0.00 0.00 0.00 0.00 0.00 0.00 0.00 0.00 0.00 0.00 0.00 0.00 0.00 0.00 0.00 0.00 0.00 0.00 0.00 0.00
0.00 0.00 0.00 0.00 0.00 0.00 0.00 0.00 0.00 0.00 0.00 0.00 0.00 0.00 0.00 0.00 0.00 0.00 0.00 0.00 0.00 0.00 0.00 0.00 0.00 0.00 0.00 0.00 0.00 0.00 0.00 0.00 0.00 0.00 0.00 0.00 0.00 0.00 0.00 0.00 0.00 0.00 0.00 0.00
0.00 0.01 0.00 0.00 0.00 0.00 0.00 0.00 0.00 0.00 0.00 0.00 0.00 0.00 0.00 0.00 0.00 0.00 0.00 0.00 0.00 0.00 0.00 0.00 0.00 0.00 0.00 0.00 0.00 0.00 0.00 0.00 0.00 0.00 0.00 0.00 0.00 0.00 0.00 0.00 0.00 0.00 0.00 0.00
0.00 0.00 0.00 0.00 0.00 0.00 0.00 0.00 0.00 0.00 0.00 0.00 0.00 0.00 0.00 0.00 0.00 0.00 0.00 0.00 0.00 0.00 0.00 0.00 0.00 0.00 0.00 0.00 0.00 0.00 0.00 0.00 0.00 0.00 0.00 0.00 0.00 0.00 0.00 0.00 0.00 0.00 0.00 0.00
0.00 0.00 0.00 0.00 0.00 0.00 0.00 0.00 0.00 0.00 0.00 0.00 0.00 0.00 0.00 0.00 0.00 0.00 0.00 0.00 0.00 0.00 0.00 0.00 0.00 0.00 0.00 0.00 0.00 0.00 0.00 0.00 0.00 0.00 0.00 0.00 0.00 0.00 0.00 0.00 0.00 0.00 0.00 0.00
0.00 0.00 0.00 0.00 0.00 0.00 0.00 0.00 0.00 0.00 0.00 0.00 0.00 0.00 0.00 0.00 0.00 0.00 0.00 0.00 0.00 0.00 0.00 0.00 0.00 0.00 0.00 0.00 0.00 0.00 0.00 0.00 0.00 0.00 0.00 0.00 0.00 0.00 0.00 0.00 0.00 0.00 0.00 0.00
0.00 0.00 0.00 0.00 0.00 0.00 0.00 0.00 0.00 0.00 0.00 0.00 0.00 0.00 0.00 0.00 0.00 0.00 0.00 0.00 0.00 0.00 0.00 0.00 0.00 0.00 0.00 0.00 0.00 0.00 0.00 0.00 0.00 0.00 0.00 0.00 0.00 0.00 0.00 0.00 0.00 0.00 0.00 0.00
0.00 0.00 0.00 0.00 0.01 0.00 0.00 0.00 0.00 0.00 0.00 0.00 0.00 0.00 0.00 0.00 0.00 0.00 0.00 0.00 0.00 0.00 0.00 0.00 0.00 0.00 0.00 0.00 0.00 0.00 0.00 0.00 0.00 0.00 0.00 0.00 0.00 0.00 0.00 0.00 0.00 0.00 0.00 0.00
0.00 0.00 0.00 0.00 0.00 0.00 0.00 0.00 0.00 0.00 0.00 0.00 0.00 0.00 0.00 0.00 0.00 0.00 0.00 0.00 0.00 0.00 0.00 0.00 0.00 0.00 0.00 0.00 0.00 0.00 0.00 0.00 0.00 0.00 0.00 0.00 0.00 0.00 0.00 0.00 0.00 0.00 0.00 0.00
0.00 0.00 0.00 0.00 0.01 0.00 0.00 0.00 0.00 0.00 0.00 0.00 0.00 0.00 0.00 0.00 0.00 0.00 0.00 0.00 0.00 0.00 0.00 0.00 0.00 0.00 0.00 0.00 0.00 0.00 0.00 0.00 0.00 0.00 0.00 0.00 0.00 0.00 0.00 0.00 0.00 0.00 0.00 0.00
0.00 0.00 0.00 0.00 0.00 0.00 0.00 0.00 0.00 0.00 0.00 0.00 0.00 0.00 0.00 0.00 0.00 0.00 0.00 0.00 0.00 0.00 0.00 0.00 0.00 0.00 0.00 0.00 0.00 0.00 0.00 0.00 0.00 0.00 0.00 0.00 0.00 0.00 0.00 0.00 0.00 0.00 0.00 0.00
0.00 0.00 0.00 0.00 0.00 0.00 0.00 0.00 0.00 0.00 0.00 0.00 0.00 0.00 0.00 0.00 0.00 0.00 0.00 0.00 0.00 0.00 0.00 0.00 0.00 0.00 0.00 0.00 0.00 0.00 0.00 0.00 0.00 0.00 0.00 0.00 0.00 0.00 0.00 0.00 0.00 0.00 0.00 0.00
0.00 0.00 0.00 0.00 0.00 0.00 0.00 0.00 0.00 0.00 0.00 0.00 0.00 0.00 0.00 0.00 0.00 0.00 0.00 0.00 0.00 0.00 0.00 0.00 0.00 0.00 0.00 0.00 0.00 0.00 0.00 0.00 0.00 0.00 0.00 0.00 0.00 0.00 0.00 0.00 0.00 0.00 0.00 0.01
0.00 0.00 0.00 0.00 0.00 0.00 0.00 0.00 0.00 0.00 0.00 0.00 0.00 0.00 0.00 0.00 0.00 0.00 0.00 0.00 0.00 0.00 0.00 0.00 0.00 0.00 0.00 0.00 0.00 0.00 0.00 0.00 0.00 0.00 0.00 0.00 0.00 0.00 0.00 0.00 0.00 0.00 0.00 0.01
MSLP
1019.36 1019.84 1020.29 1020.70 1021.02 1021.22 1021.28 1021.18 1020.91 1020.52 1020.04 1019.56 1019.16 1018.91 1018.89 1019.13 1019.63 1020.33 1021.15 1021.99 1022.74 1023.31 1023.60 1023.60 1023.31 1022.78 1022.08 1021.31 1020.55 1019.89 1019.38 1019.04 1018.88 1018.86 1018.93 1019.05 1019.17 1019.25 1019.26 1019.21 1019.11 1018.99 1018.89 1018.85
1019.51 1019.88 1020.22 1020.51 1020.76 1020.93 1021.00 1020.96 1020.78 1020.50 1020.16 1019.81 1019.52 1019.37 1019.43 1019.72 1020.25 1020.97 1021.80 1022.64 1023.40 1023.96 1024.27 1024.27 1024.01 1023.51 1022.86 1022.15 1021.47 1020.90 1020.49 1020.26 1020.19 1020.25 1020.38 1020.53 1020.65 1020.68 1020.62 1020.47 1020.25 1019.99 1019.75 1019.57
1019.52 1019.74 1019.94 1020.14 1020.32 1020.48 1020.59 1020.63 1020.59 1020.47 1020.29 1020.10 1019.95 1019.92 1020.05 1020.39 1020.93 1021.64 1022.45 1023.26 1023.99 1024.55 1024.85 1024.89 1024.67 1024.23 1023.67 1023.05 1022.47 1022.01 1021.70 1021.57 1021.59 1021.71 1021.89 1022.07 1022.18 1022.19 1022.07 1021.85 1021.54 1021.19 1020.84 1020.54
1019.39 1019.47 1019.54 1019.65 1019.78 1019.95 1020.13 1020.30 1020.42 1020.47 1020.48 1020.46 1020.46 1020.54 1020.73 1021.09 1021.62 1022.29 1023.04 1023.81 1024.50 1025.04 1025.36 1025.44 1025.28 1024.94 1024.48 1023.97 1023.51 1023.15 1022.94 1022.88 1022.96 1023.13 1023.33 1023.51 1023.62 1023.62 1023.48 1023.23 1022.88 1022.48 1022.06 1021.67
1019.18 1019.12 1019.10 1019.14 1019.26 1019.47 1019.75 1020.05 1020.33 1020.58 1020.76 1020.90 1021.03 1021.18 1021.42 1021.77 1022.26 1022.86 1023.55 1024.25 1024.90 1025.42 1025.77 1025.90 1025.83 1025.60 1025.26 1024.88 1024.53 1024.26 1024.12 1024.12 1024.22 1024.39 1024.59 1024.77 1024.87 1024.86 1024.73 1024.49 1024.15 1023.75 1023.31 1022.89
1018.90 1018.76 1018.67 1018.69 1018.83 1019.11 1019.49 1019.93 1020.38 1020.78 1021.12 1021.38 1021.60 1021.80 1022.04 1022.36 1022.78 1023.30 1023.90 1024.54 1025.15 1025.66 1026.04 1026.25 1026.28 1026.17 1025.96 1025.71 1025.46 1025.28 1025.19 1025.19 1025.29 1025.45 1025.62 1025.77 1025.86 1025.87 1025.76 1025.56 1025.27 1024.90 1024.50 1024.09
1018.58 1018.40 1018.30 1018.34 1018.55 1018.91 1019.40 1019.96 1020.53 1021.05 1021.49 1021.83 1022.09 1022.30 1022.51 1022.77 1023.12 1023.55 1024.08 1024.65 1025.22 1025.74 1026.16 1026.45 1026.59 1026.61 1026.53 1026.39 1026.25 1026.13 1026.07 1026.07 1026.15 1026.26 1026.39 1026.51 1026.59 1026.61 1026.54 1026.40 1026.17 1025.88 1025.54 1025.16
1018.22 1018.06 1018.01 1018.12 1018.40 1018.85 1019.43 1020.08 1020.73 1021.31 1021.79 1022.15 1022.41 1022.59 1022.76 1022.96 1023.23 1023.59 1024.04 1024.56 1025.11 1025.65 1026.12 1026.49 1026.75 1026.88 1026.93 1026.90 1026.84 1026.78 1026.74 1026.74 1026.77 1026.84 1026.93 1027.02 1027.08 1027.11 1027.08 1027.00 1026.85 1026.63 1026.36 1026.03
1017.84 1017.75 1017.80 1018.00 1018.38 1018.91 1019.56 1020.24 1020.90 1021.48 1021.94 1022.27 1022.48 1022.62 1022.73 1022.87 1023.08 1023.40 1023.81 1024.31 1024.86 1025.41 1025.94 1026.38 1026.73 1026.98 1027.13 1027.20 1027.22 1027.20 1027.19 1027.18 1027.19 1027.23 1027.28 1027.33 1027.39 1027.42 1027.42 1027.37 1027.28 1027.12 1026.90 1026.62
1017.46 1017.51 1017.68 1018.00 1018.47 1019.06 1019.71 1020.38 1020.99 1021.50 1021.88 1022.13 1022.28 1022.36 1022.42 1022.53 1022.72 1023.02 1023.43 1023.93 1024.49 1025.08 1025.64 1026.15 1026.58 1026.91 1027.14 1027.29 1027.37 1027.41 1027.42 1027.43 1027.43 1027.44 1027.47 1027.51 1027.54 1027.57 1027.57 1027.55 1027.48 1027.35 1027.16 1026.89
1017.17 1017.37 1017.69 1018.12 1018.66 1019.27 1019.89 1020.47 1020.97 1021.35 1021.61 1021.76 1021.82 1021.85 1021.90 1022.01 1022.21 1022.54 1022.97 1023.50 1024.09 1024.71 1025.30 1025.84 1026.31 1026.69 1026.98 1027.19 1027.32 1027.41 1027.46 1027.49 1027.51 1027.53 1027.55 1027.57 1027.59 1027.60 1027.60 1027.56 1027.48 1027.34 1027.14 1026.87
1017.03 1017.40 1017.87 1018.41 1018.99 1019.57 1020.10 1020.56 1020.90 1021.11 1021.22 1021.25 1021.23 1021.22 1021.27 1021.42 1021.68 1022.06 1022.55 1023.12 1023.74 1024.37 1024.97 1025.51 1025.99 1026.38 1026.69 1026.93 1027.11 1027.24 1027.33 1027.40 1027.45 1027.49 1027.53 1027.55 1027.56 1027.56 1027.53 1027.46 1027.34 1027.16 1026.92 1026.61
1017.14 1017.68 1018.28 1018.89 1019.47 1019.99 1020.40 1020.69 1020.84 1020.87 1020.82 1020.73 1020.64 1020.62 1020.69 1020.90 1021.23 1021.69 1022.24 1022.86 1023.49 1024.11 1024.69 1025.20 1025.64 1026.01 1026.31 1026.56 1026.76 1026.93 1027.08 1027.19 1027.30 1027.38 1027.44 1027.47 1027.49 1027.47 1027.40 1027.29 1027.12 1026.89 1026.60 1026.24
1017.58 1018.26 1018.95 1019.59 1020.15 1020.57 1020.84 1020.94 1020.90 1020.75 1020.54 1020.34 1020.21 1020.19 1020.30 1020.57 1020.99 1021.52 1022.12 1022.75 1023.38 1023.96 1024.48 1024.93 1025.31 1025.62 1025.89 1026.13 1026.34 1026.55 1026.73 1026.91 1027.07 1027.20 1027.30 1027.37 1027.39 1027.36 1027.27 1027.13 1026.92 1026.64 1026.29 1025.89
1018.35 1019.13 1019.88 1020.52 1021.02 1021.32 1021.43 1021.35 1021.13 1020.82 1020.49 1020.21 1020.04 1020.02 1020.18 1020.51 1020.99 1021.56 1022.19 1022.81 1023.40 1023.91 1024.35 1024.70 1024.99 1025.24 1025.46 1025.67 1025.89 1026.13 1026.36 1026.60 1026.82 1027.01 1027.16 1027.27 1027.31 1027.29 1027.20 1027.03 1026.80 1026.49 1026.11 1025.67
1019.40 1020.24 1020.99 1021.60 1022.01 1022.19 1022.15 1021.92 1021.55 1021.11 1020.68 1020.35 1020.17 1020.16 1020.35 1020.72 1021.23 1021.81 1022.41 1022.99 1023.50 1023.92 1024.25 1024.50 1024.69 1024.87 1025.04 1025.24 1025.48 1025.74 1026.03 1026.32 1026.61 1026.86 1027.07 1027.21 1027.29 1027.29 1027.21 1027.05 1026.81 1026.49 1026.11 1025.65
1020.62 1021.46 1022.18 1022.71 1023.02 1023.08 1022.91 1022.56 1022.08 1021.56 1021.09 1020.73 1020.54 1020.55 1020.75 1021.12 1021.61 1022.15 1022.70 1023.19 1023.59 1023.91 1024.12 1024.28 1024.40 1024.52 1024.67 1024.88 1025.14 1025.45 1025.79 1026.15 1026.50 1026.80 1027.06 1027.25 1027.36 1027.39 1027.33 1027.19 1026.97 1026.66 1026.28 1025.83
1021.84 1022.62 1023.25 1023.68 1023.87 1023.83 1023.57 1023.13 1022.60 1022.05 1021.56 1021.21 1021.03 1021.04 1021.23 1021.57 1022.00 1022.47 1022.92 1023.30 1023.59 1023.80 1023.93 1024.01 1024.09 1024.20 1024.37 1024.61 1024.92 1025.30 1025.71 1026.12 1026.53 1026.88 1027.17 1027.39 1027.52 1027.57 1027.54 1027.42 1027.22 1026.93 1026.57 1026.12
1022.87 1023.53 1024.03 1024.34 1024.42 1024.29 1023.96 1023.49 1022.94 1022.40 1021.94 1021.61 1021.44 1021.45 1021.61 1021.90 1022.25 1022.62 1022.96 1023.23 1023.42 1023.54 1023.62 1023.68 1023.77 1023.92 1024.15 1024.46 1024.85 1025.31 1025.79 1026.26 1026.71 1027.09 1027.40 1027.62 1027.76 1027.81 1027.77 1027.66 1027.47 1027.19 1026.82 1026.36
1023.55 1024.05 1024.40 1024.56 1024.53 1024.32 1023.95 1023.47 1022.95 1022.46 1022.04 1021.75 1021.61 1021.61 1021.74 1021.96 1022.23 1022.49 1022.73 1022.91 1023.03 1023.12 1023.19 1023.29 1023.45 1023.68 1024.01 1024.43 1024.93 1025.47 1026.02 1026.54 1027.01 1027.39 1027.69 1027.89 1028.00 1028.02 1027.95 1027.81 1027.59 1027.29 1026.90 1026.41
1023.76 1024.08 1024.26 1024.28 1024.14 1023.86 1023.47 1023.01 1022.54 1022.11 1021.76 1021.52 1021.40 1021.40 1021.50 1021.67 1021.86 1022.05 1022.21 1022.34 1022.45 1022.55 1022.68 1022.87 1023.14 1023.50 1023.97 1024.51 1025.12 1025.74 1026.35 1026.90 1027.36 1027.72 1027.98 1028.12 1028.16 1028.11 1027.98 1027.77 1027.49 1027.13 1026.68 1026.13
1023.47 1023.60 1023.61 1023.49 1023.26 1022.93 1022.53 1022.11 1021.69 1021.33 1021.05 1020.87 1020.78 1020.79 1020.88 1021.01 1021.16 1021.31 1021.45 1021.59 1021.74 1021.91 1022.15 1022.47 1022.88 1023.40 1024.01 1024.68 1025.38 1026.07 1026.71 1027.26 1027.69 1027.99 1028.17 1028.23 1028.17 1028.02 1027.79 1027.49 1027.11 1026.66 1026.12 1025.48
1022.70 1022.66 1022.52 1022.28 1021.97 1021.60 1021.21 1020.82 1020.47 1020.18 1019.97 1019.85 1019.81 1019.84 1019.94 1020.07 1020.22 1020.39 1020.57 1020.77 1021.01 1021.31 1021.68 1022.16 1022.73 1023.39 1024.13 1024.90 1025.66 1026.39 1027.02 1027.53 1027.90 1028.13 1028.21 1028.16 1027.99 1027.72 1027.38 1026.96 1026.47 1025.91 1025.26 1024.53
1021.52 1021.34 1021.08 1020.75 1020.39 1020.01 1019.64 1019.30 1019.02 1018.80 1018.66 1018.60 1018.61 1018.69 1018.82 1019.00 1019.20 1019.44 1019.71 1020.03 1020.40 1020.85 1021.38 1022.01 1022.72 1023.50 1024.32 1025.14 1025.92 1026.63 1027.22 1027.66 1027.95 1028.07 1028.05 1027.89 1027.61 1027.24 1026.78 1026.25 1025.65 1024.98 1024.23 1023.39
1020.02 1019.75 1019.41 1019.05 1018.67 1018.31 1017.99 1017.71 1017.50 1017.36 1017.29 1017.30 1017.38 1017.53 1017.74 1017.99 1018.29 1018.64 1019.05 1019.51 1020.03 1020.64 1021.32 1022.07 1022.88 1023.72 1024.57 1025.38 1026.12 1026.76 1027.26 1027.61 1027.79 1027.82 1027.70 1027.45 1027.09 1026.63 1026.09 1025.47 1024.79 1024.03 1023.19 1022.28
1018.30 1017.98 1017.63 1017.29 1016.95 1016.65 1016.40 1016.21 1016.09 1016.04 1016.06 1016.16 1016.32 1016.56 1016.87 1017.24 1017.67 1018.16 1018.72 1019.34 1020.01 1020.75 1021.54 1022.37 1023.21 1024.05 1024.85 1025.59 1026.23 1026.75 1027.13 1027.37 1027.45 1027.39 1027.20 1026.90 1026.49 1025.99 1025.41 1024.75 1024.02 1023.21 1022.33 1021.36
Thickness
5651 5640 5637 5642 5644 5645 5642 5636 5635 5641 5652 5646 5642 5642 5650 5656 5649 5633 5623 5618 5614 5611 5608 5608 5609 5612 5616 5619 5622 5623 5626 5627 5631 5632 5630 5629 5625 5624 5624 5624 5624 5624 5623 5621
5632 5630 5646 5646 5639 5634 5632 5627 5626 5633 5641 5638 5634 5634 5638 5635 5629 5622 5611 5604 5599 5596 5595 5596 5596 5598 5601 5602 5604 5605 5606 5606 5608 5609 5609 5607 5606 5604 5604 5604 5605 5604 5605 5604
5628 5638 5643 5634 5628 5624 5621 5619 5621 5622 5628 5629 5625 5621 5626 5612 5605 5600 5592 5587 5583 5581 5578 5579 5581 5582 5584 5585 5584 5586 5586 5587 5587 5588 5589 5589 5587 5584 5584 5582 5581 5582 5583 5584
5621 5632 5634 5629 5626 5620 5613 5622 5619 5617 5609 5601 5609 5594 5612 5611 5593 5583 5573 5566 5562 5561 5561 5562 5562 5564 5564 5564 5565 5567 5567 5567 5566 5566 5565 5563 5559 5555 5553 5554 5556 5559 5561 5561
5617 5625 5623 5619 5620 5617 5615 5619 5614 5609 5599 5589 5590 5586 5595 5596 5583 5568 5557 5551 5546 5543 5542 5542 5542 5542 5543 5544 5545 5546 5547 5547 5545 5544 5542 5539 5536 5533 5533 5535 5536 5536 5537 5538
5613 5619 5619 5617 5616 5613 5610 5603 5592 5579 5577 5572 5582 5575 5584 5586 5584 5560 5545 5539 5534 5530 5527 5525 5523 5523 5523 5523 5524 5525 5525 5524 5523 5522 5519 5517 5513 5512 5512 5511 5510 5510 5512 5513
5602 5606 5610 5611 5602 5600 5597 5581 5566 5564 5557 5561 5573 5569 5578 5567 5568 5556 5540 5526 5520 5516 5512 5510 5507 5505 5504 5502 5501 5501 5502 5500 5499 5499 5496 5494 5491 5489 5486 5485 5484 5484 5485 5486
5588 5589 5596 5597 5595 5587 5581 5575 5559 5550 5546 5549 5559 5559 5562 5542 5541 5536 5525 5515 5510 5505 5500 5497 5493 5490 5487 5484 5481 5479 5478 5476 5475 5473 5471 5470 5468 5465 5463 5461 5459 5458 5458 5459
5577 5579 5586 5587 5588 5582 5571 5565 5564 5547 5529 5525 5542 5551 5525 5527 5519 5514 5509 5503 5498 5494 5490 5485 5480 5475 5470 5467 5463 5460 5457 5454 5452 5450 5448 5445 5444 5441 5439 5437 5435 5434 5435 5436
5576 5568 5573 5572 5574 5571 5569 5558 5537 5532 5518 5511 5529 5539 5540 5511 5507 5502 5497 5492 5487 5482 5477 5471 5466 5460 5455 5449 5445 5441 5437 5433 5430 5427 5425 5422 5420 5418 5416 5414 5412 5411 5411 5412
5569 5559 5554 5553 5553 5553 5546 5543 5536 5522 5509 5495 5491 5522 5535 5519 5510 5498 5491 5485 5479 5472 5465 5458 5451 5445 5438 5432 5426 5421 5417 5413 5409 5406 5403 5400 5397 5395 5392 5390 5388 5387 5387 5388
5555 5544 5532 5534 5537 5538 5537 5534 5523 5506 5497 5498 5491 5503 5520 5510 5500 5490 5482 5476 5467 5459 5450 5442 5435 5427 5420 5414 5408 5403 5397 5392 5388 5385 5381 5377 5374 5372 5369 5366 5364 5363 5362 5363
5539 5521 5505 5508 5516 5517 5516 5512 5508 5493 5480 5471 5473 5487 5495 5487 5479 5473 5467 5458 5449 5441 5432 5424 5416 5409 5402 5395 5389 5384 5378 5372 5367 5363 5358 5354 5351 5348 5344 5342 5340 5338 5338 5338
5525 5509 5507 5505 5501 5495 5492 5488 5481 5469 5454 5449 5458 5472 5476 5467 5459 5452 5447 5440 5430 5423 5416 5406 5398 5391 5385 5378 5371 5365 5358 5352 5346 5340 5335 5330 5326 5322 5318 5315 5313 5311 5311 5311
5508 5492 5486 5485 5483 5478 5478 5474 5460 5454 5451 5445 5450 5455 5468 5457 5443 5437 5432 5424 5413 5406 5398 5389 5381 5373 5366 5359 5352 5345 5338 5331 5324 5318 5312 5306 5301 5296 5292 5288 5286 5285 5284 5283
5480 5465 5457 5448 5448 5449 5449 5458 5447 5443 5439 5433 5436 5443 5452 5434 5422 5416 5412 5406 5398 5390 5382 5373 5364 5355 5347 5340 5333 5325 5317 5309 5303 5296 5289 5283 5277 5272 5268 5264 5262 5260 5260 5259
5448 5434 5424 5414 5407 5416 5408 5437 5441 5433 5432 5426 5421 5427 5417 5408 5402 5395 5391 5388 5380 5372 5364 5355 5346 5336 5329 5321 5313 5304 5296 5288 5280 5274 5267 5261 5256 5250 5245 5241 5239 5237 5236 5237
5433 5414 5395 5372 5367 5364 5428 5428 5424 5420 5419 5411 5406 5401 5391 5391 5384 5380 5374 5366 5358 5351 5344 5336 5326 5318 5310 5302 5293 5285 5277 5269 5262 5255 5249 5242 5236 5230 5225 5221 5218 5215 5214 5213
5419 5401 5363 5345 5335 5350 5394 5407 5402 5395 5395 5400 5388 5381 5372 5368 5362 5357 5353 5347 5340 5332 5325 5317 5309 5301 5292 5283 5275 5267 5260 5253 5246 5240 5233 5225 5217 5211 5206 5201 5198 5195 5193 5192
5391 5385 5358 5325 5315 5326 5393 5397 5392 5381 5367 5378 5366 5360 5351 5345 5333 5334 5334 5330 5324 5317 5309 5301 5292 5283 5274 5266 5259 5252 5244 5237 5231 5224 5216 5208 5200 5194 5189 5184 5180 5176 5172 5172
5355 5351 5347 5323 5314 5327 5368 5368 5367 5348 5357 5357 5348 5344 5337 5332 5334 5328 5321 5314 5307 5301 5293 5286 5277 5269 5261 5251 5244 5237 5230 5223 5216 5207 5199 5191 5184 5177 5172 5168 5163 5159 5156 5155
5350 5334 5326 5317 5312 5336 5359 5343 5344 5349 5349 5341 5336 5332 5327 5325 5321 5313 5305 5299 5292 5285 5280 5272 5263 5254 5244 5237 5230 5223 5216 5209 5200 5192 5184 5176 5168 5162 5158 5153 5149 5145 5142 5142
5350 5354 5332 5333 5345 5355 5343 5343 5345 5340 5330 5327 5323 5320 5315 5311 5306 5300 5292 5286 5281 5276 5269 5260 5250 5239 5229 5221 5214 5207 5201 5193 5185 5176 5168 5161 5156 5150 5145 5140 5138 5136 5133 5132
5340 5341 5322 5313 5328 5334 5329 5330 5331 5323 5320 5319 5314 5309 5302 5295 5293 5287 5282 5278 5272 5266 5256 5244 5233 5223 5213 5205 5199 5191 5185 5178 5169 5161 5154 5150 5146 5141 5136 5131 5129 5127 5126 5126
5335 5328 5316 5313 5325 5321 5318 5318 5317 5311 5304 5301 5297 5293 5289 5283 5281 5277 5272 5267 5262 5254 5242 5229 5220 5210 5200 5191 5183 5176 5170 5163 5155 5148 5143 5139 5135 5131 5127 5124 5121 5121 5123 5121
5337 5327 5313 5310 5319 5310 5313 5316 5310 5301 5296 5291 5284 5280 5277 5273 5271 5268 5263 5258 5249 5238 5225 5214 5204 5195 5184 5175 5167 5161 5155 5148 5141 5136 5132 5128 5125 5121 5118 5117 5118 5119 5120 5122